TimeCST,TemperatureF,Dew PointF,Humidity,Sea Level PressureIn,VisibilityMPH,Wind Direction,Wind SpeedMPH,Gust SpeedMPH,PrecipitationIn,Events,Conditions,WindDirDegrees,DateUTC
12:15 AM,44.6,37.4,76,30.35,10.0,Calm,Calm,-,N/A,,Overcast,0,2013-12-28 06:15:00
12:35 AM,44.6,37.4,76,30.35,10.0,Calm,Calm,-,N/A,,Overcast,0,2013-12-28 06:35:00
12:55 AM,44.6,37.4,76,30.34,10.0,Calm,Calm,-,N/A,,Overcast,0,2013-12-28 06:55:00
1:15 AM,44.6,37.4,76,30.33,10.0,Calm,Calm,-,N/A,,Overcast,0,2013-12-28 07:15:00
1:35 AM,44.6,39.2,81,30.32,10.0,Calm,Calm,-,N/A,,Overcast,0,2013-12-28 07:35:00
1:55 AM,42.8,37.4,81,30.32,10.0,Calm,Calm,-,N/A,,Mostly Cloudy,0,2013-12-28 07:55:00
2:15 AM,42.8,37.4,81,30.32,10.0,Calm,Calm,-,N/A,,Overcast,0,2013-12-28 08:15:00
2:35 AM,42.8,37.4,81,30.32,10.0,Calm,Calm,-,N/A,,Overcast,0,2013-12-28 08:35:00
2:55 AM,42.8,37.4,81,30.31,10.0,Calm,Calm,-,N/A,,Mostly Cloudy,0,2013-12-28 08:55:00
3:15 AM,42.8,37.4,81,30.30,10.0,Calm,Calm,-,N/A,,Overcast,0,2013-12-28 09:15:00
3:35 AM,42.8,37.4,81,30.30,10.0,North,3.5,-,N/A,,Overcast,350,2013-12-28 09:35:00
3:55 AM,42.8,39.2,87,30.29,10.0,Calm,Calm,-,N/A,,Overcast,0,2013-12-28 09:55:00
4:15 AM,42.8,39.2,87,30.29,10.0,Calm,Calm,-,N/A,,Overcast,0,2013-12-28 10:15:00
4:35 AM,44.6,39.2,81,30.28,10.0,Calm,Calm,-,N/A,,Overcast,0,2013-12-28 10:35:00
4:55 AM,44.6,39.2,81,30.28,10.0,Calm,Calm,-,N/A,,Overcast,0,2013-12-28 10:55:00
5:15 AM,42.8,39.2,87,30.28,10.0,Calm,Calm,-,N/A,,Mostly Cloudy,0,2013-12-28 11:15:00
5:35 AM,42.8,39.2,87,30.28,10.0,Calm,Calm,-,N/A,,Partly Cloudy,0,2013-12-28 11:35:00
5:55 AM,41.0,37.4,87,30.27,10.0,Calm,Calm,-,N/A,,Clear,0,2013-12-28 11:55:00
6:15 AM,39.2,37.4,93,30.27,10.0,Calm,Calm,-,N/A,,Mostly Cloudy,0,2013-12-28 12:15:00
6:35 AM,42.8,37.4,81,30.27,10.0,Calm,Calm,-,N/A,,Overcast,0,2013-12-28 12:35:00
6:55 AM,42.8,37.4,81,30.27,10.0,Calm,Calm,-,N/A,,Overcast,0,2013-12-28 12:55:00
7:15 AM,42.8,37.4,81,30.27,10.0,Calm,Calm,-,N/A,,Scattered Clouds,0,2013-12-28 13:15:00
7:35 AM,39.2,35.6,87,30.28,10.0,Calm,Calm,-,N/A,,Clear,0,2013-12-28 13:35:00
7:55 AM,39.2,37.4,93,30.27,10.0,Calm,Calm,-,N/A,,Partly Cloudy,0,2013-12-28 13:55:00
8:15 AM,42.8,39.2,87,30.27,10.0,Calm,Calm,-,N/A,,Partly Cloudy,0,2013-12-28 14:15:00
8:35 AM,42.8,39.2,87,30.27,10.0,Calm,Calm,-,N/A,,Scattered Clouds,0,2013-12-28 14:35:00
8:55 AM,44.6,39.2,81,30.27,10.0,Calm,Calm,-,N/A,,Mostly Cloudy,0,2013-12-28 14:55:00
9:15 AM,44.6,39.2,81,30.27,10.0,Calm,Calm,-,N/A,,Mostly Cloudy,0,2013-12-28 15:15:00
9:35 AM,46.4,39.2,76,30.28,10.0,Calm,Calm,-,N/A,,Mostly Cloudy,0,2013-12-28 15:35:00
9:55 AM,46.4,41.0,81,30.28,10.0,Calm,Calm,-,N/A,,Mostly Cloudy,0,2013-12-28 15:55:00
10:15 AM,48.2,39.2,71,30.28,10.0,Calm,Calm,-,N/A,,Partly Cloudy,0,2013-12-28 16:15:00
10:35 AM,50.0,39.2,66,30.27,10.0,Calm,Calm,-,N/A,,Partly Cloudy,0,2013-12-28 16:35:00
10:55 AM,51.8,42.8,71,30.25,10.0,Calm,Calm,-,N/A,,Partly Cloudy,0,2013-12-28 16:55:00
11:15 AM,53.6,42.8,67,30.24,10.0,South,3.5,-,N/A,,Scattered Clouds,180,2013-12-28 17:15:00
11:35 AM,55.4,44.6,67,30.22,10.0,Calm,Calm,-,N/A,,Partly Cloudy,0,2013-12-28 17:35:00
11:55 AM,57.2,44.6,63,30.20,10.0,SSW,3.5,-,N/A,,Clear,210,2013-12-28 17:55:00
12:15 PM,57.2,42.8,59,30.19,10.0,SW,4.6,-,N/A,,Clear,220,2013-12-28 18:15:00
12:35 PM,60.8,44.6,55,30.17,10.0,Calm,Calm,-,N/A,,Clear,0,2013-12-28 18:35:00
12:55 PM,60.8,42.8,52,30.15,10.0,SSW,4.6,-,N/A,,Scattered Clouds,210,2013-12-28 18:55:00
1:15 PM,60.8,42.8,52,30.13,10.0,SW,5.8,-,N/A,,Scattered Clouds,230,2013-12-28 19:15:00
1:35 PM,60.8,44.6,55,30.12,10.0,SSW,4.6,-,N/A,,Partly Cloudy,210,2013-12-28 19:35:00
1:55 PM,60.8,44.6,55,30.10,9.0,SSW,5.8,-,N/A,,Mostly Cloudy,210,2013-12-28 19:55:00
2:15 PM,60.8,44.6,55,30.09,10.0,Calm,Calm,-,N/A,,Overcast,0,2013-12-28 20:15:00
2:35 PM,60.8,44.6,55,30.08,9.0,Calm,Calm,-,N/A,,Overcast,0,2013-12-28 20:35:00
2:55 PM,60.8,44.6,55,30.07,10.0,Calm,Calm,-,N/A,,Overcast,0,2013-12-28 20:55:00
3:15 PM,60.8,44.6,55,30.06,10.0,South,5.8,-,N/A,,Overcast,170,2013-12-28 21:15:00
3:35 PM,60.8,46.4,59,30.06,10.0,South,5.8,-,N/A,,Overcast,170,2013-12-28 21:35:00
3:55 PM,60.8,46.4,59,30.05,10.0,South,3.5,-,N/A,,Overcast,170,2013-12-28 21:55:00
4:15 PM,60.8,46.4,59,30.05,10.0,South,4.6,-,N/A,,Mostly Cloudy,180,2013-12-28 22:15:00
4:35 PM,60.8,46.4,59,30.05,10.0,West,3.5,-,N/A,,Overcast,280,2013-12-28 22:35:00
4:55 PM,59.0,46.4,63,30.04,10.0,Calm,Calm,-,N/A,,Overcast,0,2013-12-28 22:55:00
5:15 PM,59.0,46.4,63,30.04,10.0,Calm,Calm,-,N/A,,Overcast,0,2013-12-28 23:15:00
5:35 PM,59.0,46.4,63,30.04,10.0,Calm,Calm,-,N/A,,Overcast,0,2013-12-28 23:35:00
5:55 PM,57.2,46.4,67,30.03,10.0,Calm,Calm,-,N/A,,Overcast,0,2013-12-28 23:55:00
6:15 PM,57.2,46.4,67,30.03,10.0,Calm,Calm,-,N/A,,Overcast,0,2013-12-29 00:15:00
6:35 PM,57.2,46.4,67,30.04,10.0,South,3.5,-,N/A,,Overcast,190,2013-12-29 00:35:00
6:55 PM,57.2,46.4,67,30.04,10.0,Calm,Calm,-,N/A,,Overcast,0,2013-12-29 00:55:00
7:15 PM,55.4,46.4,72,30.04,10.0,SSW,5.8,-,N/A,,Overcast,200,2013-12-29 01:15:00
7:35 PM,55.4,46.4,72,30.04,10.0,South,5.8,-,N/A,,Overcast,190,2013-12-29 01:35:00
7:55 PM,53.6,46.4,77,30.03,10.0,South,6.9,-,N/A,,Scattered Clouds,190,2013-12-29 01:55:00
8:15 PM,53.6,44.6,72,30.04,10.0,South,5.8,-,N/A,,Clear,190,2013-12-29 02:15:00
8:35 PM,51.8,44.6,76,30.03,10.0,South,3.5,-,N/A,,Clear,190,2013-12-29 02:35:00
8:55 PM,48.2,44.6,87,30.04,10.0,SSW,5.8,-,N/A,,Clear,210,2013-12-29 02:55:00
9:15 PM,48.2,44.6,87,30.04,10.0,SW,4.6,-,N/A,,Clear,230,2013-12-29 03:15:00
9:35 PM,48.2,44.6,87,30.04,10.0,SW,6.9,-,N/A,,Clear,230,2013-12-29 03:35:00
9:55 PM,50.0,46.4,87,30.04,10.0,SW,8.1,-,N/A,,Scattered Clouds,230,2013-12-29 03:55:00
10:15 PM,50.0,46.4,87,30.04,10.0,SW,3.5,-,N/A,,Mostly Cloudy,220,2013-12-29 04:15:00
10:35 PM,48.2,44.6,87,30.04,10.0,Calm,Calm,-,N/A,,Partly Cloudy,0,2013-12-29 04:35:00
10:55 PM,46.4,44.6,93,30.04,10.0,Calm,Calm,-,N/A,,Mostly Cloudy,0,2013-12-29 04:55:00
11:15 PM,46.4,44.6,93,30.04,10.0,Calm,Calm,-,N/A,,Overcast,0,2013-12-29 05:15:00
11:35 PM,48.2,44.6,87,30.04,10.0,Calm,Calm,-,N/A,,Overcast,0,2013-12-29 05:35:00
11:55 PM,48.2,46.4,93,30.04,10.0,Calm,Calm,-,N/A,,Overcast,0,2013-12-29 05:55:00